FFLY-3

导读

FFLY-3卫星预定于2025年8月26日发射,截至当前,其发射国家仍未确定。作为一颗尚未披露更多技术参数与任务目标的卫星,FFLY-3的相关信息目前处于待公开状态,其发射后的运行任务、应用领域也暂未对外公布,后续进展还有待相关机构进一步披露。

基本信息
目录编号:
65319
目录名称:
FFLY-3
国际标识:
2025-188E
轨道中心:
EARTH
卫星名称:
FFLY-3
卫星全名:
FFLY-3
卫星状态:
在轨 (已飞行375 天)
发射日期:
2025-08-26 UTC
国别 :
美国 (US)
星等 :
--
轨道信息
数据来源 国际轨道数据
星历时间: 2026-09-05T15:05:46+0800
8小时前
查看轨道信息
半长轴: 6967.217km
偏心率: 0.0007624
轨道倾角: 97.726°
近地点辐角 187.906°
升交点赤经 321.998°
平近点角 172.204°
近地点: 583.768km
远地点: 594.392km
周期: 96.460分钟
每日圈数: 14.928418
详细信息
使用方式:
暂无
2D轨道图
3D轨道图
轨道高度分析图
轨道倾角分析图
轨道综合分析图
查看轨道综合分析图